Flag for Germany Weather past 2 weeks in Alsdorf, North Rhine-Westphalia, Germany

Now
54 °F

Passing clouds.


Feels Like: 51 °F
Forecast: 47 / 63 °F
Wind: 8 mph from Southwest

Location: Maastricht Airport Zuid Limburg

Current Time: Aug 23, 2014 at 4:32:45 AM

Latest Report: Aug 23, 2014 at 3:55 AM


Visibility: N/A

Pressure: 29.89 "Hg

Humidity: 94%

Dew point: 52 °F

Location of AlsdorfLocation

Historic Weather in Alsdorf — Graph

°F

Alsdorf temperature yesterday

Maximum temperature yesterday: 64 °F (at 1:55 PM)
Minimum temperature yesterday: 52 °F (at 12:25 AM)
Average temperature yesterday: 57 °F

Past Weeks' High & Low Weather Summary

 TemperatureHumidityPressure
High75 °F (Aug 8, 2:25 PM)100% (Aug 8, 8:25 PM)30.12 "Hg (Aug 8, 8:25 PM)
Low46 °F (Aug 20, 3:25 AM)49% (Aug 21, 4:55 PM)29.56 "Hg (Aug 10, 5:55 PM)
Average60 °F80%29.87 "Hg
* Reported Aug 8 2:25 AM — Aug 23 2:55 AM, Alsdorf, Weather by CustomWeather, © 2014

Note: Actual official high and low records may vary slightly from our data, if they occured in-between our weather recording intervals... More about our weather records

Advertising

Alsdorf weather history for previous 24 hours

 ConditionsComfort  
Time TempWeatherWind HumidityBarometerVisibility
2:55 AM
Aug 23
52 °FPassing clouds.8 mph100%29.92 "HgN/A
2:25 AM54 °FPassing clouds.9 mph94%29.92 "HgN/A
1:55 AM54 °FPassing clouds.7 mph100%29.92 "HgN/A
1:25 AM54 °FClear.7 mph100%29.92 "HgN/A
12:55 AM54 °FClear.8 mph94%29.92 "HgN/A
12:25 AM54 °FLight rain. Passing clouds.7 mph94%29.92 "HgN/A
11:55 PM
Aug 22
54 °FClear.5 mph94%29.92 "HgN/A
11:25 PM52 °FClear.3 mph94%29.92 "HgN/A
10:55 PM54 °FClear.2 mph94%29.92 "HgN/A
10:25 PM54 °FClear.7 mph94%29.92 "HgN/A
9:55 PM55 °FPassing clouds.3 mph82%29.92 "HgN/A
9:25 PM57 °FLight rain. Cloudy.6 mph82%29.89 "HgN/A
8:55 PM55 °FThunderstorms. Clear.9 mph94%29.89 "HgN/A
8:25 PM55 °FClear.8 mph94%29.89 "HgN/A
7:55 PM55 °FPassing clouds.9 mph100%29.89 "HgN/A
7:25 PM57 °FPassing clouds.10 mph88%29.89 "HgN/A
6:55 PM55 °FSprinkles. Partly sunny.13 mph94%29.89 "Hg6 mi
6:25 PM55 °FRain showers. Broken clouds.12 mph94%29.89 "Hg4 mi
5:55 PM57 °FSprinkles. Partly sunny.8 mph88%29.89 "HgN/A
5:25 PM59 °FScattered clouds.7 mph77%29.86 "HgN/A
4:55 PM63 °FClear.13 mph56%29.86 "HgN/A
4:25 PM64 °FClear.17 mph52%29.86 "HgN/A
3:55 PM64 °FClear.22 mph52%29.86 "HgN/A
3:25 PM64 °FClear.18 mph56%29.86 "HgN/A
2:55 PM64 °FPassing clouds.17 mph56%29.86 "HgN/A
2:25 PM64 °FPassing clouds.14 mph60%29.86 "HgN/A
1:55 PM64 °FScattered clouds.14 mph56%29.89 "HgN/A
1:25 PM63 °FPartly sunny.14 mph59%29.89 "HgN/A
12:55 PM63 °FScattered clouds.15 mph64%29.89 "HgN/A
12:25 PM63 °FPassing clouds.20 mph59%29.89 "HgN/A
11:55 AM63 °FPassing clouds.18 mph64%29.89 "HgN/A
11:25 AM61 °FClear.16 mph63%29.89 "HgN/A
10:55 AM61 °FClear.15 mph63%29.89 "HgN/A
10:25 AM61 °FScattered clouds.12 mph68%29.89 "HgN/A
9:55 AM57 °FClear.12 mph77%29.89 "HgN/A
9:25 AM55 °FClear.10 mph77%29.89 "HgN/A
8:55 AM55 °FClear.14 mph77%29.89 "HgN/A
8:25 AM54 °FClear.13 mph77%29.89 "HgN/A
7:55 AM54 °FClear.10 mph77%29.89 "HgN/A
7:25 AM54 °FClear.12 mph77%29.89 "HgN/A
6:55 AM52 °FClear.10 mph82%29.89 "HgN/A
6:25 AM52 °FClear.10 mph82%29.92 "HgN/A
5:55 AM52 °FClear.9 mph82%29.92 "HgN/A
5:25 AM52 °FClear.9 mph82%29.92 "HgN/A
4:55 AM52 °FCool.8 mph82%29.92 "HgN/A
4:25 AM52 °FClear.8 mph88%29.92 "HgN/A
Weather by CustomWeather, © 2014

See weather overviewHow to use our weather pages